カタログに戻る

STARLINK-36614

運用中通信VLEO
NORAD 67622·PAYLOAD·🇺🇸 United States

打ち上げ Jan 30, 2026 から Cape Canaveral Space Force Station

Loading…

次のパス (今後24時間)

TLE

最新Source: CelesTrak SupGP

元期: Sep 15, 2026, 03:39 UTC

1 67622C 26020F   26258.15256944  .00059500  00000+0  21552-2 0  2585
2 67622  42.9995 149.8790 0001536 275.8150 260.5737 15.27546385    11

AllMySatでSTARLINK-36614をリアルタイム追跡

Download on the App Store